Location: Caltech
(34.1382°N, 118.1253°W)
Time: 05:40:31
(UTC-07:00)

Iridium 95 - Pass Details

Date: 05 May 2018
Orbit: 775 x 780 km, 86.4° (Epoch: 20 May)

Event Time Altitude Azimuth Distance (km) Brightness Sun altitude
Rises 20:43:26 0° 200° (SSW) 3,245 8.6 -12.7°
Reaches altitude 10° 20:45:55 10° 208° (SSW) 2,321 8.0 -13.2°
Maximum altitude 20:50:45 39° 276° (W) 1,162 7.0 -14.0°
Drops below altitude 10° 20:55:37 10° 345° (NNW) 2,332 8.7 -14.9°
Sets 20:58:07 0° 353° (N) 3,263 9.4 -15.3°
